Year,Month,Day,Hour,Minute,Value (Times are PST for temperature in C)
2021,06,27,00,00,23.50
2021,06,27,00,01,23.40
2021,06,27,00,02,23.30
2021,06,27,00,03,23.30
2021,06,27,00,04,23.20
2021,06,27,00,05,23.20
2021,06,27,00,06,23.10
2021,06,27,00,07,23.10
2021,06,27,00,08,23.10
2021,06,27,00,09,23.10
2021,06,27,00,10,23.10
2021,06,27,00,11,23.00
2021,06,27,00,12,23.00
2021,06,27,00,13,23.00
2021,06,27,00,14,22.90
2021,06,27,00,15,22.90
2021,06,27,00,16,22.90
2021,06,27,00,17,22.90
2021,06,27,00,18,22.90
2021,06,27,00,19,22.90
2021,06,27,00,20,22.80
2021,06,27,00,21,22.80
2021,06,27,00,22,22.80
2021,06,27,00,23,22.80
2021,06,27,00,24,22.80
2021,06,27,00,25,22.80
2021,06,27,00,26,22.80
2021,06,27,00,27,22.80
2021,06,27,00,28,22.80
2021,06,27,00,29,22.70
2021,06,27,00,30,22.70
2021,06,27,00,31,22.70
2021,06,27,00,32,22.70
2021,06,27,00,33,22.70
2021,06,27,00,34,22.70
2021,06,27,00,35,22.70
2021,06,27,00,36,22.70
2021,06,27,00,37,22.70
2021,06,27,00,38,22.70
2021,06,27,00,39,22.70
2021,06,27,00,40,22.70
2021,06,27,00,41,22.70
2021,06,27,00,42,22.70
2021,06,27,00,43,22.70
2021,06,27,00,44,22.70
2021,06,27,00,45,22.70
2021,06,27,00,46,22.70
2021,06,27,00,47,22.70
2021,06,27,00,48,22.70
2021,06,27,00,49,22.70
2021,06,27,00,50,22.70
2021,06,27,00,51,22.70
2021,06,27,00,52,22.70
2021,06,27,00,53,22.70
2021,06,27,00,54,22.70
2021,06,27,00,55,22.70
2021,06,27,00,56,22.70
2021,06,27,00,57,22.70
2021,06,27,00,58,22.60
2021,06,27,00,59,22.60
2021,06,27,01,00,22.60
2021,06,27,01,01,22.60
2021,06,27,01,02,22.60
2021,06,27,01,03,22.60
2021,06,27,01,04,22.60
2021,06,27,01,05,22.50
2021,06,27,01,06,22.50
2021,06,27,01,07,22.50
2021,06,27,01,08,22.50
2021,06,27,01,09,22.40
2021,06,27,01,10,22.40
2021,06,27,01,11,22.50
2021,06,27,01,12,22.40
2021,06,27,01,13,22.40
2021,06,27,01,14,22.50
2021,06,27,01,15,22.50
2021,06,27,01,16,22.40
2021,06,27,01,17,22.40
2021,06,27,01,18,22.40
2021,06,27,01,19,22.40
2021,06,27,01,20,22.40
2021,06,27,01,21,22.30
2021,06,27,01,22,22.30
2021,06,27,01,23,22.30
2021,06,27,01,24,22.30
2021,06,27,01,25,22.30
2021,06,27,01,26,22.30
2021,06,27,01,27,22.30
2021,06,27,01,28,22.30
2021,06,27,01,29,22.30
2021,06,27,01,30,22.30
2021,06,27,01,31,22.30
2021,06,27,01,32,22.20
2021,06,27,01,33,22.20
2021,06,27,01,34,22.20
2021,06,27,01,35,22.20
2021,06,27,01,36,22.20
2021,06,27,01,37,22.20
2021,06,27,01,38,22.20
2021,06,27,01,39,22.20
2021,06,27,01,40,22.20
2021,06,27,01,41,22.30
2021,06,27,01,42,22.30
2021,06,27,01,43,22.30
2021,06,27,01,44,22.40
2021,06,27,01,45,22.50
2021,06,27,01,46,22.50
2021,06,27,01,47,22.60
2021,06,27,01,48,22.60
2021,06,27,01,49,22.70
2021,06,27,01,50,22.70
2021,06,27,01,51,22.70
2021,06,27,01,52,22.70
2021,06,27,01,53,22.70
2021,06,27,01,54,22.70
2021,06,27,01,55,22.70
2021,06,27,01,56,22.70
2021,06,27,01,57,22.80
2021,06,27,01,58,22.80
2021,06,27,01,59,22.70
2021,06,27,02,00,22.80
2021,06,27,02,01,22.80
2021,06,27,02,02,22.90
2021,06,27,02,03,22.90
2021,06,27,02,04,23.00
2021,06,27,02,05,23.00
2021,06,27,02,06,23.10
2021,06,27,02,07,23.10
2021,06,27,02,08,23.10
2021,06,27,02,09,23.20
2021,06,27,02,10,23.20
2021,06,27,02,11,23.20
2021,06,27,02,12,23.20
2021,06,27,02,13,23.30
2021,06,27,02,14,23.30
2021,06,27,02,15,23.30
2021,06,27,02,16,23.20
2021,06,27,02,17,23.20
2021,06,27,02,18,23.20
2021,06,27,02,19,23.20
2021,06,27,02,20,23.10
2021,06,27,02,21,23.10
2021,06,27,02,22,23.10
2021,06,27,02,23,23.00
2021,06,27,02,24,22.90
2021,06,27,02,25,22.90
2021,06,27,02,26,22.90
2021,06,27,02,27,22.80
2021,06,27,02,28,22.80
2021,06,27,02,29,22.70
2021,06,27,02,30,22.70
2021,06,27,02,31,22.70
2021,06,27,02,32,22.60
2021,06,27,02,33,22.60
2021,06,27,02,34,22.50
2021,06,27,02,35,22.40
2021,06,27,02,36,22.40
2021,06,27,02,37,22.40
2021,06,27,02,38,22.30
2021,06,27,02,39,22.30
2021,06,27,02,40,22.30
2021,06,27,02,41,22.30
2021,06,27,02,42,22.30
2021,06,27,02,43,22.20
2021,06,27,02,44,22.20
2021,06,27,02,45,22.20
2021,06,27,02,46,22.20
2021,06,27,02,47,22.20
2021,06,27,02,48,22.20
2021,06,27,02,49,22.20
2021,06,27,02,50,22.20
2021,06,27,02,51,22.20
2021,06,27,02,52,22.20
2021,06,27,02,53,22.20
2021,06,27,02,54,22.20
2021,06,27,02,55,22.20
2021,06,27,02,56,22.20
2021,06,27,02,57,22.20
2021,06,27,02,58,22.30
2021,06,27,02,59,22.30
2021,06,27,03,00,22.40
2021,06,27,03,01,22.40
2021,06,27,03,02,22.40
2021,06,27,03,03,22.50
2021,06,27,03,04,22.50
2021,06,27,03,05,22.50
2021,06,27,03,06,22.50
2021,06,27,03,07,22.60
2021,06,27,03,08,22.60
2021,06,27,03,09,22.60
2021,06,27,03,10,22.60
2021,06,27,03,11,22.60
2021,06,27,03,12,22.60
2021,06,27,03,13,22.60
2021,06,27,03,14,22.60
2021,06,27,03,15,22.60
2021,06,27,03,16,22.60
2021,06,27,03,17,22.60
2021,06,27,03,18,22.60
2021,06,27,03,19,22.60
2021,06,27,03,20,22.60
2021,06,27,03,21,22.60
2021,06,27,03,22,22.60
2021,06,27,03,23,22.60
2021,06,27,03,24,22.60
2021,06,27,03,25,22.60
2021,06,27,03,26,22.60
2021,06,27,03,27,22.60
2021,06,27,03,28,22.60
2021,06,27,03,29,22.60
2021,06,27,03,30,22.60
2021,06,27,03,31,22.60
2021,06,27,03,32,22.60
2021,06,27,03,33,22.60
2021,06,27,03,34,22.60
2021,06,27,03,35,22.60
2021,06,27,03,36,22.60
2021,06,27,03,37,22.50
2021,06,27,03,38,22.50
2021,06,27,03,39,22.50
2021,06,27,03,40,22.50
2021,06,27,03,41,22.40
2021,06,27,03,42,22.40
2021,06,27,03,43,22.40
2021,06,27,03,44,22.40
2021,06,27,03,45,22.40
2021,06,27,03,46,22.50
2021,06,27,03,47,22.50
2021,06,27,03,48,22.50
2021,06,27,03,49,22.50
2021,06,27,03,50,22.60
2021,06,27,03,51,22.60
2021,06,27,03,52,22.60
2021,06,27,03,53,22.60
2021,06,27,03,54,22.60
2021,06,27,03,55,22.60
2021,06,27,03,56,22.60
2021,06,27,03,57,22.60
2021,06,27,03,58,22.60
2021,06,27,03,59,22.50
2021,06,27,04,00,22.50
2021,06,27,04,01,22.50
2021,06,27,04,02,22.50
2021,06,27,04,03,22.50
2021,06,27,04,04,22.40
2021,06,27,04,05,22.40
2021,06,27,04,06,22.50
2021,06,27,04,07,22.50
2021,06,27,04,08,22.50
2021,06,27,04,09,22.50
2021,06,27,04,10,22.60
2021,06,27,04,11,22.60
2021,06,27,04,12,22.60
2021,06,27,04,13,22.70
2021,06,27,04,14,22.70
2021,06,27,04,15,22.70
2021,06,27,04,16,22.70
2021,06,27,04,17,22.70
2021,06,27,04,18,22.70
2021,06,27,04,19,22.70
2021,06,27,04,20,22.80
2021,06,27,04,21,22.70
2021,06,27,04,22,22.70
2021,06,27,04,23,22.70
2021,06,27,04,24,22.70
2021,06,27,04,25,22.70
2021,06,27,04,26,22.70
2021,06,27,04,27,22.70
2021,06,27,04,28,22.60
2021,06,27,04,29,22.60
2021,06,27,04,30,22.60
2021,06,27,04,31,22.60
2021,06,27,04,32,22.50
2021,06,27,04,33,22.50
2021,06,27,04,34,22.40
2021,06,27,04,35,22.40
2021,06,27,04,36,22.40
2021,06,27,04,37,22.30
2021,06,27,04,38,22.30
2021,06,27,04,39,22.30
2021,06,27,04,40,22.30
2021,06,27,04,41,22.30
2021,06,27,04,42,22.30
2021,06,27,04,43,22.20
2021,06,27,04,44,22.20
2021,06,27,04,45,22.20
2021,06,27,04,46,22.20
2021,06,27,04,47,22.20
2021,06,27,04,48,22.10
2021,06,27,04,49,22.10
2021,06,27,04,50,22.10
2021,06,27,04,51,22.00
2021,06,27,04,52,22.00
2021,06,27,04,53,21.90
2021,06,27,04,54,21.90
2021,06,27,04,55,21.90
2021,06,27,04,56,21.90
2021,06,27,04,57,21.90
2021,06,27,04,58,21.90
2021,06,27,04,59,21.90
2021,06,27,05,00,21.90
2021,06,27,05,01,21.90
2021,06,27,05,02,21.90
2021,06,27,05,03,21.90
2021,06,27,05,04,21.90
2021,06,27,05,05,21.90
2021,06,27,05,06,21.90
2021,06,27,05,07,21.90
2021,06,27,05,08,22.00
2021,06,27,05,09,22.00
2021,06,27,05,10,22.00
2021,06,27,05,11,22.00
2021,06,27,05,12,22.10
2021,06,27,05,13,22.00
2021,06,27,05,14,22.10
2021,06,27,05,15,22.10
2021,06,27,05,16,22.10
2021,06,27,05,17,22.10
2021,06,27,05,18,22.10
2021,06,27,05,19,22.10
2021,06,27,05,20,22.10
2021,06,27,05,21,22.10
2021,06,27,05,22,22.10
2021,06,27,05,23,22.10
2021,06,27,05,24,22.10
2021,06,27,05,25,22.10
2021,06,27,05,26,22.20
2021,06,27,05,27,22.20
2021,06,27,05,28,22.20
2021,06,27,05,29,22.20
2021,06,27,05,30,22.30
2021,06,27,05,31,22.30
2021,06,27,05,32,22.30
2021,06,27,05,33,22.40
2021,06,27,05,34,22.40
2021,06,27,05,35,22.40
2021,06,27,05,36,22.40
2021,06,27,05,37,22.40
2021,06,27,05,38,22.40
2021,06,27,05,39,22.40
2021,06,27,05,40,22.40
2021,06,27,05,41,22.40
2021,06,27,05,42,22.40
2021,06,27,05,43,22.40
2021,06,27,05,44,22.40
2021,06,27,05,45,22.40
2021,06,27,05,46,22.50
2021,06,27,05,47,22.50
2021,06,27,05,48,22.50
2021,06,27,05,49,22.60
2021,06,27,05,50,22.60
2021,06,27,05,51,22.60
2021,06,27,05,52,22.60
2021,06,27,05,53,22.60
2021,06,27,05,54,22.60
2021,06,27,05,55,22.60
2021,06,27,05,56,22.50
2021,06,27,05,57,22.50
2021,06,27,05,58,22.50
2021,06,27,05,59,22.60
2021,06,27,06,00,22.60
2021,06,27,06,01,22.60
2021,06,27,06,02,22.60
2021,06,27,06,03,22.60
2021,06,27,06,04,22.60
2021,06,27,06,05,22.60
2021,06,27,06,06,22.70
2021,06,27,06,07,22.70
2021,06,27,06,08,22.70
2021,06,27,06,09,22.70
2021,06,27,06,10,22.80
2021,06,27,06,11,22.80
2021,06,27,06,12,22.80
2021,06,27,06,13,22.90
2021,06,27,06,14,22.90
2021,06,27,06,15,22.90
2021,06,27,06,16,22.90
2021,06,27,06,17,22.90
2021,06,27,06,18,22.90
2021,06,27,06,19,22.90
2021,06,27,06,20,22.90
2021,06,27,06,21,22.90
2021,06,27,06,22,22.90
2021,06,27,06,23,22.90
2021,06,27,06,24,22.90
2021,06,27,06,25,22.90
2021,06,27,06,26,22.90
2021,06,27,06,27,22.90
2021,06,27,06,28,22.90
2021,06,27,06,29,22.90
2021,06,27,06,30,22.90
2021,06,27,06,31,23.00
2021,06,27,06,32,23.00
2021,06,27,06,33,23.00
2021,06,27,06,34,23.10
2021,06,27,06,35,23.10
2021,06,27,06,36,23.10
2021,06,27,06,37,23.20
2021,06,27,06,38,23.20
2021,06,27,06,39,23.30
2021,06,27,06,40,23.30
2021,06,27,06,41,23.30
2021,06,27,06,42,23.40
2021,06,27,06,43,23.40
2021,06,27,06,44,23.50
2021,06,27,06,45,23.60
2021,06,27,06,46,23.70
2021,06,27,06,47,23.80
2021,06,27,06,48,23.80
2021,06,27,06,49,23.90
2021,06,27,06,50,24.00
2021,06,27,06,51,24.10
2021,06,27,06,52,24.10
2021,06,27,06,53,24.20
2021,06,27,06,54,24.30
2021,06,27,06,55,24.40
2021,06,27,06,56,24.50
2021,06,27,06,57,24.60
2021,06,27,06,58,24.70
2021,06,27,06,59,24.80
2021,06,27,07,00,25.00
2021,06,27,07,01,25.10
2021,06,27,07,02,25.10
2021,06,27,07,03,25.20
2021,06,27,07,04,25.30
2021,06,27,07,05,25.30
2021,06,27,07,06,25.40
2021,06,27,07,07,25.40
2021,06,27,07,08,25.50
2021,06,27,07,09,25.50
2021,06,27,07,10,25.60
2021,06,27,07,11,25.60
2021,06,27,07,12,25.70
2021,06,27,07,13,25.70
2021,06,27,07,14,25.80
2021,06,27,07,15,25.90
2021,06,27,07,16,26.00
2021,06,27,07,17,26.10
2021,06,27,07,18,26.10
2021,06,27,07,19,26.20
2021,06,27,07,20,26.30
2021,06,27,07,21,26.40
2021,06,27,07,22,26.40
2021,06,27,07,23,26.40
2021,06,27,07,24,26.40
2021,06,27,07,25,26.50
2021,06,27,07,26,26.50
2021,06,27,07,27,26.40
2021,06,27,07,28,26.40
2021,06,27,07,29,26.40
2021,06,27,07,30,26.40
2021,06,27,07,31,26.40
2021,06,27,07,32,26.40
2021,06,27,07,33,26.50
2021,06,27,07,34,26.50
2021,06,27,07,35,26.50
2021,06,27,07,36,26.50
2021,06,27,07,37,26.50
2021,06,27,07,38,26.60
2021,06,27,07,39,26.50
2021,06,27,07,40,26.50
2021,06,27,07,41,26.50
2021,06,27,07,42,26.60
2021,06,27,07,43,26.50
2021,06,27,07,44,26.60
2021,06,27,07,45,26.70
2021,06,27,07,46,26.70
2021,06,27,07,47,26.70
2021,06,27,07,48,26.80
2021,06,27,07,49,26.80
2021,06,27,07,50,26.70
2021,06,27,07,51,26.80
2021,06,27,07,52,26.90
2021,06,27,07,53,27.00
2021,06,27,07,54,27.10
2021,06,27,07,55,27.10
2021,06,27,07,56,27.10
2021,06,27,07,57,27.20
2021,06,27,07,58,27.30
2021,06,27,07,59,27.30
2021,06,27,08,00,27.30
2021,06,27,08,01,27.30
2021,06,27,08,02,27.40
2021,06,27,08,03,27.40
2021,06,27,08,04,27.40
2021,06,27,08,05,27.50
2021,06,27,08,06,27.60
2021,06,27,08,07,27.60
2021,06,27,08,08,27.60
2021,06,27,08,09,27.70
2021,06,27,08,10,27.80
2021,06,27,08,11,27.90
2021,06,27,08,12,28.00
2021,06,27,08,13,28.10
2021,06,27,08,14,28.20
2021,06,27,08,15,28.40
2021,06,27,08,16,28.50
2021,06,27,08,17,28.70
2021,06,27,08,18,28.80
2021,06,27,08,19,28.90
2021,06,27,08,20,29.00
2021,06,27,08,21,29.10
2021,06,27,08,22,29.20
2021,06,27,08,23,29.20
2021,06,27,08,24,29.30
2021,06,27,08,25,29.40
2021,06,27,08,26,29.40
2021,06,27,08,27,29.40
2021,06,27,08,28,29.50
2021,06,27,08,29,29.50
2021,06,27,08,30,29.50
2021,06,27,08,31,29.60
2021,06,27,08,32,29.60
2021,06,27,08,33,29.60
2021,06,27,08,34,29.60
2021,06,27,08,35,29.70
2021,06,27,08,36,29.70
2021,06,27,08,37,29.80
2021,06,27,08,38,29.80
2021,06,27,08,39,29.90
2021,06,27,08,40,30.00
2021,06,27,08,41,30.10
2021,06,27,08,42,30.20
2021,06,27,08,43,30.20
2021,06,27,08,44,30.30
2021,06,27,08,45,30.40
2021,06,27,08,46,30.50
2021,06,27,08,47,30.50
2021,06,27,08,48,30.60
2021,06,27,08,49,30.70
2021,06,27,08,50,30.80
2021,06,27,08,51,30.90
2021,06,27,08,52,31.00
2021,06,27,08,53,31.10
2021,06,27,08,54,31.20
2021,06,27,08,55,31.30
2021,06,27,08,56,31.40
2021,06,27,08,57,31.40
2021,06,27,08,58,31.40
2021,06,27,08,59,31.40
2021,06,27,09,00,31.40
2021,06,27,09,01,31.30
2021,06,27,09,02,31.30
2021,06,27,09,03,31.30
2021,06,27,09,04,31.20
2021,06,27,09,05,31.20
2021,06,27,09,06,31.30
2021,06,27,09,07,31.40
2021,06,27,09,08,31.50
2021,06,27,09,09,31.60
2021,06,27,09,10,31.60
2021,06,27,09,11,31.70
2021,06,27,09,12,31.80
2021,06,27,09,13,31.80
2021,06,27,09,14,31.80
2021,06,27,09,15,31.80
2021,06,27,09,16,31.80
2021,06,27,09,17,31.80
2021,06,27,09,18,31.70
2021,06,27,09,19,31.70
2021,06,27,09,20,31.60
2021,06,27,09,21,31.60
2021,06,27,09,22,31.60
2021,06,27,09,23,31.70
2021,06,27,09,24,31.70
2021,06,27,09,25,31.70
2021,06,27,09,26,31.70
2021,06,27,09,27,31.70
2021,06,27,09,28,31.70
2021,06,27,09,29,31.80
2021,06,27,09,30,31.90
2021,06,27,09,31,31.90
2021,06,27,09,32,32.00
2021,06,27,09,33,32.10
2021,06,27,09,34,32.10
2021,06,27,09,35,32.20
2021,06,27,09,36,32.30
2021,06,27,09,37,32.40
2021,06,27,09,38,32.50
2021,06,27,09,39,32.60
2021,06,27,09,40,32.60
2021,06,27,09,41,32.60
2021,06,27,09,42,32.60
2021,06,27,09,43,32.60
2021,06,27,09,44,32.60
2021,06,27,09,45,32.60
2021,06,27,09,46,32.60
2021,06,27,09,47,32.60
2021,06,27,09,48,32.60
2021,06,27,09,49,32.60
2021,06,27,09,50,32.60
2021,06,27,09,51,32.60
2021,06,27,09,52,32.60
2021,06,27,09,53,32.60
2021,06,27,09,54,32.70
2021,06,27,09,55,32.70
2021,06,27,09,56,32.70
2021,06,27,09,57,32.80
2021,06,27,09,58,32.80
2021,06,27,09,59,32.80
2021,06,27,10,00,32.90
2021,06,27,10,01,32.90
2021,06,27,10,02,32.90
2021,06,27,10,03,32.90
2021,06,27,10,04,32.80
2021,06,27,10,05,32.80
2021,06,27,10,06,32.80
2021,06,27,10,07,32.70
2021,06,27,10,08,32.80
2021,06,27,10,09,32.80
2021,06,27,10,10,32.80
2021,06,27,10,11,32.90
2021,06,27,10,12,33.00
2021,06,27,10,13,33.00
2021,06,27,10,14,33.10
2021,06,27,10,15,33.10
2021,06,27,10,16,33.20
2021,06,27,10,17,33.20
2021,06,27,10,18,33.20
2021,06,27,10,19,33.20
2021,06,27,10,20,33.30
2021,06,27,10,21,33.30
2021,06,27,10,22,33.30
2021,06,27,10,23,33.30
2021,06,27,10,24,33.30
2021,06,27,10,25,33.30
2021,06,27,10,26,33.40
2021,06,27,10,27,33.50
2021,06,27,10,28,33.50
2021,06,27,10,29,33.50
2021,06,27,10,30,33.50
2021,06,27,10,31,33.40
2021,06,27,10,32,33.40
2021,06,27,10,33,33.40
2021,06,27,10,34,33.40
2021,06,27,10,35,33.50
2021,06,27,10,36,33.50
2021,06,27,10,37,33.50
2021,06,27,10,38,33.50
2021,06,27,10,39,33.50
2021,06,27,10,40,33.50
2021,06,27,10,41,33.60
2021,06,27,10,42,33.60
2021,06,27,10,43,33.70
2021,06,27,10,44,33.70
2021,06,27,10,45,33.80
2021,06,27,10,46,33.70
2021,06,27,10,47,33.40
2021,06,27,10,48,33.30
2021,06,27,10,49,33.20
2021,06,27,10,50,33.10
2021,06,27,10,51,32.80
2021,06,27,10,52,32.60
2021,06,27,10,53,32.50
2021,06,27,10,54,32.40
2021,06,27,10,55,32.40
2021,06,27,10,56,32.40
2021,06,27,10,57,32.40
2021,06,27,10,58,32.40
2021,06,27,10,59,32.40
2021,06,27,11,00,32.30
2021,06,27,11,01,32.20
2021,06,27,11,02,32.10
2021,06,27,11,03,32.10
2021,06,27,11,04,32.00
2021,06,27,11,05,31.90
2021,06,27,11,06,31.80
2021,06,27,11,07,31.80
2021,06,27,11,08,31.80
2021,06,27,11,09,31.80
2021,06,27,11,10,31.70
2021,06,27,11,11,31.70
2021,06,27,11,12,31.80
2021,06,27,11,13,31.80
2021,06,27,11,14,31.90
2021,06,27,11,15,31.90
2021,06,27,11,16,31.90
2021,06,27,11,17,31.90
2021,06,27,11,18,32.00
2021,06,27,11,19,32.00
2021,06,27,11,20,32.00
2021,06,27,11,21,32.10
2021,06,27,11,22,32.20
2021,06,27,11,23,32.30
2021,06,27,11,24,32.30
2021,06,27,11,25,32.30
2021,06,27,11,26,32.20
2021,06,27,11,27,32.20
2021,06,27,11,28,32.20
2021,06,27,11,29,32.30
2021,06,27,11,30,32.30
2021,06,27,11,31,32.40
2021,06,27,11,32,32.40
2021,06,27,11,33,32.50
2021,06,27,11,34,32.70
2021,06,27,11,35,32.70
2021,06,27,11,36,32.80
2021,06,27,11,37,32.80
2021,06,27,11,38,32.90
2021,06,27,11,39,33.00
2021,06,27,11,40,33.10
2021,06,27,11,41,33.10
2021,06,27,11,42,33.10
2021,06,27,11,43,33.10
2021,06,27,11,44,33.20
2021,06,27,11,45,33.10
2021,06,27,11,46,33.10
2021,06,27,11,47,33.10
2021,06,27,11,48,33.00
2021,06,27,11,49,32.80
2021,06,27,11,50,32.80
2021,06,27,11,51,32.70
2021,06,27,11,52,32.70
2021,06,27,11,53,32.70
2021,06,27,11,54,32.80
2021,06,27,11,55,32.90
2021,06,27,11,56,33.00
2021,06,27,11,57,33.20
2021,06,27,11,58,33.30
2021,06,27,11,59,33.40
2021,06,27,12,00,33.50
2021,06,27,12,01,33.60
2021,06,27,12,02,33.70
2021,06,27,12,03,33.80
2021,06,27,12,04,33.90
2021,06,27,12,05,33.90
2021,06,27,12,06,33.90
2021,06,27,12,07,34.00
2021,06,27,12,08,34.00
2021,06,27,12,09,34.00
2021,06,27,12,10,34.10
2021,06,27,12,11,34.10
2021,06,27,12,12,34.10
2021,06,27,12,13,34.00
2021,06,27,12,14,33.90
2021,06,27,12,15,33.90
2021,06,27,12,16,33.90
2021,06,27,12,17,33.90
2021,06,27,12,18,33.90
2021,06,27,12,19,34.00
2021,06,27,12,20,34.10
2021,06,27,12,21,34.00
2021,06,27,12,22,34.00
2021,06,27,12,23,34.00
2021,06,27,12,24,34.10
2021,06,27,12,25,34.20
2021,06,27,12,26,34.20
2021,06,27,12,27,34.30
2021,06,27,12,28,34.40
2021,06,27,12,29,34.50
2021,06,27,12,30,34.60
2021,06,27,12,31,34.70
2021,06,27,12,32,34.90
2021,06,27,12,33,35.00
2021,06,27,12,34,35.20
2021,06,27,12,35,35.30
2021,06,27,12,36,35.40
2021,06,27,12,37,35.50
2021,06,27,12,38,35.60
2021,06,27,12,39,35.70
2021,06,27,12,40,35.80
2021,06,27,12,41,35.90
2021,06,27,12,42,35.80
2021,06,27,12,43,35.70
2021,06,27,12,44,35.70
2021,06,27,12,45,35.70
2021,06,27,12,46,35.80
2021,06,27,12,47,35.80
2021,06,27,12,48,35.90
2021,06,27,12,49,36.00
2021,06,27,12,50,36.10
2021,06,27,12,51,36.20
2021,06,27,12,52,36.30
2021,06,27,12,53,36.30
2021,06,27,12,54,36.30
2021,06,27,12,55,36.40
2021,06,27,12,56,36.40
2021,06,27,12,57,36.40
2021,06,27,12,58,36.40
2021,06,27,12,59,36.40
2021,06,27,13,00,36.40
2021,06,27,13,01,36.40
2021,06,27,13,02,36.50
2021,06,27,13,03,36.50
2021,06,27,13,04,36.60
2021,06,27,13,05,36.60
2021,06,27,13,06,36.50
2021,06,27,13,07,36.60
2021,06,27,13,08,36.70
2021,06,27,13,09,36.80
2021,06,27,13,10,36.80
2021,06,27,13,11,36.80
2021,06,27,13,12,36.80
2021,06,27,13,13,36.90
2021,06,27,13,14,37.00
2021,06,27,13,15,37.10
2021,06,27,13,16,37.10
2021,06,27,13,17,37.20
2021,06,27,13,18,37.10
2021,06,27,13,19,37.10
2021,06,27,13,20,37.10
2021,06,27,13,21,37.00
2021,06,27,13,22,36.90
2021,06,27,13,23,36.70
2021,06,27,13,24,36.50
2021,06,27,13,25,36.40
2021,06,27,13,26,36.30
2021,06,27,13,27,36.30
2021,06,27,13,28,36.40
2021,06,27,13,29,36.50
2021,06,27,13,30,36.50
2021,06,27,13,31,36.60
2021,06,27,13,32,36.60
2021,06,27,13,33,36.60
2021,06,27,13,34,36.70
2021,06,27,13,35,36.70
2021,06,27,13,36,36.70
2021,06,27,13,37,36.60
2021,06,27,13,38,36.60
2021,06,27,13,39,36.50
2021,06,27,13,40,36.50
2021,06,27,13,41,36.50
2021,06,27,13,42,36.50
2021,06,27,13,43,36.50
2021,06,27,13,44,36.30
2021,06,27,13,45,36.10
2021,06,27,13,46,36.10
2021,06,27,13,47,36.10
2021,06,27,13,48,36.00
2021,06,27,13,49,36.10
2021,06,27,13,50,36.20
2021,06,27,13,51,36.30
2021,06,27,13,52,36.50
2021,06,27,13,53,36.60
2021,06,27,13,54,36.80
2021,06,27,13,55,36.90
2021,06,27,13,56,37.10
2021,06,27,13,57,37.20
2021,06,27,13,58,37.20
2021,06,27,13,59,37.20
2021,06,27,14,00,37.10
2021,06,27,14,01,36.90
2021,06,27,14,02,36.90
2021,06,27,14,03,36.80
2021,06,27,14,04,36.70
2021,06,27,14,05,36.60
2021,06,27,14,06,36.70
2021,06,27,14,07,36.70
2021,06,27,14,08,36.70
2021,06,27,14,09,36.80
2021,06,27,14,10,36.90
2021,06,27,14,11,36.90
2021,06,27,14,12,36.90
2021,06,27,14,13,37.00
2021,06,27,14,14,37.10
2021,06,27,14,15,37.20
2021,06,27,14,16,37.30
2021,06,27,14,17,37.40
2021,06,27,14,18,37.50
2021,06,27,14,19,37.40
2021,06,27,14,20,37.30
2021,06,27,14,21,37.40
2021,06,27,14,22,37.40
2021,06,27,14,23,37.40
2021,06,27,14,24,37.50
2021,06,27,14,25,37.50
2021,06,27,14,26,37.50
2021,06,27,14,27,37.60
2021,06,27,14,28,37.60
2021,06,27,14,29,37.60
2021,06,27,14,30,37.60
2021,06,27,14,31,37.70
2021,06,27,14,32,37.80
2021,06,27,14,33,37.90
2021,06,27,14,34,38.00
2021,06,27,14,35,37.90
2021,06,27,14,36,37.90
2021,06,27,14,37,37.90
2021,06,27,14,38,37.90
2021,06,27,14,39,37.90
2021,06,27,14,40,37.90
2021,06,27,14,41,37.90
2021,06,27,14,42,37.90
2021,06,27,14,43,37.90
2021,06,27,14,44,37.90
2021,06,27,14,45,37.80
2021,06,27,14,46,37.70
2021,06,27,14,47,37.70
2021,06,27,14,48,37.60
2021,06,27,14,49,37.50
2021,06,27,14,50,37.60
2021,06,27,14,51,37.60
2021,06,27,14,52,37.70
2021,06,27,14,53,37.80
2021,06,27,14,54,37.80
2021,06,27,14,55,37.80
2021,06,27,14,56,37.80
2021,06,27,14,57,37.80
2021,06,27,14,58,37.80
2021,06,27,14,59,37.80
2021,06,27,15,00,37.80
2021,06,27,15,01,37.80
2021,06,27,15,02,37.90
2021,06,27,15,03,37.80
2021,06,27,15,04,37.80
2021,06,27,15,05,37.70
2021,06,27,15,06,37.80
2021,06,27,15,07,37.80
2021,06,27,15,08,37.80
2021,06,27,15,09,37.70
2021,06,27,15,10,37.70
2021,06,27,15,11,37.70
2021,06,27,15,12,37.80
2021,06,27,15,13,37.80
2021,06,27,15,14,37.90
2021,06,27,15,15,37.90
2021,06,27,15,16,37.90
2021,06,27,15,17,37.90
2021,06,27,15,18,37.90
2021,06,27,15,19,37.80
2021,06,27,15,20,37.80
2021,06,27,15,21,37.70
2021,06,27,15,22,37.60
2021,06,27,15,23,37.60
2021,06,27,15,24,37.60
2021,06,27,15,25,37.60
2021,06,27,15,26,37.60
2021,06,27,15,27,37.70
2021,06,27,15,28,37.70
2021,06,27,15,29,37.80
2021,06,27,15,30,37.80
2021,06,27,15,31,37.80
2021,06,27,15,32,37.80
2021,06,27,15,33,37.80
2021,06,27,15,34,37.80
2021,06,27,15,35,37.80
2021,06,27,15,36,37.70
2021,06,27,15,37,37.70
2021,06,27,15,38,37.70
2021,06,27,15,39,37.70
2021,06,27,15,40,37.80
2021,06,27,15,41,37.80
2021,06,27,15,42,37.90
2021,06,27,15,43,38.00
2021,06,27,15,44,38.00
2021,06,27,15,45,38.10
2021,06,27,15,46,38.20
2021,06,27,15,47,38.30
2021,06,27,15,48,38.40
2021,06,27,15,49,38.40
2021,06,27,15,50,38.40
2021,06,27,15,51,38.40
2021,06,27,15,52,38.40
2021,06,27,15,53,38.40
2021,06,27,15,54,38.30
2021,06,27,15,55,38.30
2021,06,27,15,56,38.30
2021,06,27,15,57,38.40
2021,06,27,15,58,38.40
2021,06,27,15,59,38.40
2021,06,27,16,00,38.50
2021,06,27,16,01,38.50
2021,06,27,16,02,38.60
2021,06,27,16,03,38.60
2021,06,27,16,04,38.70
2021,06,27,16,05,38.70
2021,06,27,16,06,38.70
2021,06,27,16,07,38.70
2021,06,27,16,08,38.70
2021,06,27,16,09,38.60
2021,06,27,16,10,38.60
2021,06,27,16,11,38.60
2021,06,27,16,12,38.70
2021,06,27,16,13,38.70
2021,06,27,16,14,38.80
2021,06,27,16,15,38.80
2021,06,27,16,16,38.80
2021,06,27,16,17,38.80
2021,06,27,16,18,38.80
2021,06,27,16,19,38.80
2021,06,27,16,20,38.80
2021,06,27,16,21,38.70
2021,06,27,16,22,38.70
2021,06,27,16,23,38.80
2021,06,27,16,24,38.80
2021,06,27,16,25,38.80
2021,06,27,16,26,38.80
2021,06,27,16,27,38.80
2021,06,27,16,28,38.80
2021,06,27,16,29,38.70
2021,06,27,16,30,38.60
2021,06,27,16,31,38.60
2021,06,27,16,32,38.60
2021,06,27,16,33,38.60
2021,06,27,16,34,38.60
2021,06,27,16,35,38.60
2021,06,27,16,36,38.60
2021,06,27,16,37,38.70
2021,06,27,16,38,38.80
2021,06,27,16,39,38.80
2021,06,27,16,40,38.80
2021,06,27,16,41,38.80
2021,06,27,16,42,38.80
2021,06,27,16,43,38.80
2021,06,27,16,44,38.80
2021,06,27,16,45,38.80
2021,06,27,16,46,38.80
2021,06,27,16,47,38.80
2021,06,27,16,48,38.80
2021,06,27,16,49,38.80
2021,06,27,16,50,38.80
2021,06,27,16,51,38.80
2021,06,27,16,52,38.90
2021,06,27,16,53,38.90
2021,06,27,16,54,39.00
2021,06,27,16,55,39.10
2021,06,27,16,56,39.20
2021,06,27,16,57,39.20
2021,06,27,16,58,39.30
2021,06,27,16,59,39.30
2021,06,27,17,00,39.30
2021,06,27,17,01,39.30
2021,06,27,17,02,39.40
2021,06,27,17,03,39.40
2021,06,27,17,04,39.40
2021,06,27,17,05,39.50
2021,06,27,17,06,39.50
2021,06,27,17,07,39.60
2021,06,27,17,08,39.60
2021,06,27,17,09,39.70
2021,06,27,17,10,39.70
2021,06,27,17,11,39.80
2021,06,27,17,12,39.80
2021,06,27,17,13,39.80
2021,06,27,17,14,39.80
2021,06,27,17,15,39.90
2021,06,27,17,16,39.90
2021,06,27,17,17,39.90
2021,06,27,17,18,39.90
2021,06,27,17,19,39.90